SPACEBEE-146 (52412 NORAD) Tracking and Keplerian Element Data

This shows tracking and keplerian element data for the satellite.

Feedback or suggestion? Click here.




ElementValue
Catalog52412
NameSPACEBEE-146
Epoch Orbit812
Epoch Day166.96168402
Epoch Year2022
RAAN251.8849
Inclination97.4503
Eccentricity0.0009682
Argument of Perigee172.1079
Mean Anonmoly188.0307
Mean Motion15.1326326
Decay Rate9.312E-05
L11 52412U 22047U 22166.96168402 .00009312 00000+0 52640-3 0 9996
L22 52412 97.4503 251.8849 0009682 172.1079 188.0307 15.13263260 8120

Live tracking and technical data element details for SPACEBEE-146 (NORAD 52412). SPACEBEE-146 can be tracked NOW for your location showing map with azimuth and elevation plus other details from your city location.

Track the satellite on the map from your city or location and see movement details for azimuth, elevation, latitude, longitude, range, height, and movement on the map or in text.







IsCatalogInMostPopularTable: catalog: 52412, numindb: 1
Update: records affected: 1



GetName: 52412 SPACEBEE-146

Hit Count: updated at: Sat, 25 Jun 2022 05:32:20 GMT